Starlink 2381

operational
NORAD ID: 47800 Int'l Des: 2021-018 Owner: SPXS Country: US Constellation: starlink
LEOCIRCULARSTARLINK_TYPE

Starlink 2381について

説明を読み込み中...

リアルタイム位置

3D地球を読み込み中...

次回通過

高度履歴

Altitude vs Time

uPlot chart will show altitude changes over time

軌道要素

1 47800U 21018P 25302.85182274 -.00000484 00000-0 -13589-4 0 9998
2 47800 53.0536 98.9720 0001969 94.4195 265.7019 15.06386635257158
Epoch: Oct 29, 2025 • Age: 17 hours

現在のステータス

高度 564.8 km
速度 7.58 km/s
衛星直下点 -47.60°S, 156.71°E
打ち上げ日 Mar 11, 2021
運用期間 4.6 years
タイプ internet

技術仕様

分類 Payload
質量 260.00 kg
乾燥質量 248.00 kg
総質量 260.00 kg
長さ 0.20 m
直径 2.80 m
スパン 9.00 m
形状 Box + pan
製造者 SPXS
バスタイプ Starlink
フェーズステータス In Orbit
所有者/国 SPXS/US

大規模コンステレーション

Loading constellations...